RH
16 18 19 17 17 16 19 18 17 14 13 12 12 16 24 27 28 23 24 24 36 44 50 49 44 44 53 64 62 64 74 81 72 69 80 82 62 37 64 63 58 53 55
24 23 23 17 13 17 20 21 17 16 15 13 12 13 18 26 29 23 21 20 32 42 50 50 45 45 53 62 60 69 80 78 69 66 83 76 59 45 70 63 57 54 56
21 30 28 13 13 18 25 23 18 17 16 15 13 13 14 15 21 23 21 19 23 36 49 51 46 45 52 63 62 74 80 79 66 63 79 60 51 49 70 58 57 59 56
32 28 22 13 16 20 24 23 18 18 18 17 14 13 12 14 15 16 17 19 20 31 47 54 50 48 57 62 63 75 89 81 64 64 52 46 47 61 69 61 62 58 59
27 31 21 19 20 23 25 20 19 18 18 18 14 13 14 14 14 16 17 20 22 28 41 54 54 52 56 61 64 73 74 66 59 55 46 43 40 62 64 62 63 61 67
26 25 32 31 22 22 21 20 19 19 19 19 16 14 14 15 15 16 17 21 26 28 40 51 62 59 58 60 65 74 69 64 56 48 41 34 45 68 62 72 63 61 64
22 26 26 29 21 20 20 20 20 20 20 20 18 15 14 15 15 16 17 20 26 31 34 43 57 67 65 60 61 69 72 65 55 44 35 34 53 70 63 73 60 58 62
24 26 28 25 21 22 22 23 22 22 21 20 19 16 16 15 13 13 16 21 22 28 33 48 61 70 77 73 64 68 62 70 61 45 44 40 63 74 68 68 58 57 63
29 32 26 30 36 38 33 31 28 22 21 20 19 17 18 15 13 13 14 19 20 31 37 41 56 71 84 87 81 89 71 71 67 53 52 52 76 76 74 64 56 58 57
39 36 38 30 27 27 26 25 24 23 23 22 20 19 19 16 12 11 13 16 21 29 38 41 46 59 78 94 83 95 93 84 60 67 63 66 81 77 75 62 54 52 53
43 40 40 28 25 27 29 27 26 24 24 23 22 20 20 17 14 12 14 20 25 31 37 40 47 53 58 90 88 94 98 97 80 74 67 72 76 74 74 64 55 53 52
51 52 38 34 31 32 30 29 27 25 25 24 24 22 22 19 18 16 14 17 24 36 36 38 49 53 63 74 84 86 91 100 95 70 58 69 75 77 69 66 56 56 51
59 58 57 53 43 34 29 31 30 27 25 25 26 24 23 21 20 18 16 14 17 36 42 42 51 58 72 85 96 98 95 92 92 72 71 80 84 76 67 66 62 56 60
84 75 68 58 57 50 40 30 30 31 30 28 27 26 25 23 21 21 20 19 18 36 49 53 58 67 78 96 99 91 99 91 94 89 77 74 76 77 74 66 66 65 66
58 90 88 75 57 50 46 45 38 38 37 34 28 28 26 24 25 26 25 22 20 37 53 59 62 68 79 99 98 94 100 100 99 94 86 82 75 90 81 77 72 63 73
28 36 63 88 81 65 48 42 30 30 29 38 36 30 28 26 28 31 30 29 24 22 42 60 68 68 85 92 82 78 98 100 100 90 82 81 69 92 95 82 67 65 59
22 26 28 38 72 84 51 30 28 29 34 35 38 36 30 29 30 36 37 36 24 18 25 46 58 56 71 80 80 91 100 99 100 96 91 79 75 85 89 84 75 58 69
23 19 21 26 29 43 64 38 39 43 47 54 58 44 34 32 32 38 42 40 28 12 17 27 48 56 64 83 87 99 98 99 100 100 97 74 66 56 55 61 28 34 45
29 31 29 25 23 27 38 43 40 49 48 51 76 54 39 36 36 37 47 45 40 14 12 19 32 53 65 91 94 99 98 98 100 99 97 94 93 82 73 32 31 29 19
29 32 31 29 29 23 25 38 41 42 41 52 71 53 43 42 39 40 49 50 48 29 11 13 23 43 59 97 100 100 100 96 98 100 98 98 97 93 80 49 38 30 21
27 28 28 30 29 30 23 36 35 34 35 35 53 71 50 47 46 42 48 53 50 41 19 13 21 32 98 90 100 100 100 100 100 99 98 98 99 99 82 60 34 31 24
24 26 23 26 28 32 31 26 38 39 36 36 37 52 84 64 52 44 48 52 52 43 30 16 17 33 65 92 96 92 97 100 99 89 99 98 100 99 84 74 36 28 26
21 22 24 25 28 32 34 31 27 38 37 41 45 45 89 86 57 48 48 49 51 44 28 19 23 46 62 78 88 91 92 98 98 90 99 100 100 98 91 86 30 26 26
20 19 23 24 25 31 35 32 28 28 35 36 35 48 98 95 59 53 51 47 48 41 20 22 54 58 66 76 88 93 93 93 98 93 99 98 100 98 100 71 28 28 23
32 24 20 26 24 30 33 34 31 30 30 32 34 64 77 76 74 60 55 44 45 32 17 32 68 64 73 90 90 90 95 89 92 96 99 100 100 99 100 60 31 29 18
46 29 33 31 28 26 30 37 34 32 32 32 36 58 87 68 82 62 48 48 45 30 18 38 74 72 79 84 88 93 92 93 90 88 96 99 99 99 99 59 32 30 17
Wind_Speed
10 18 15 14 12 9 7 4 1 3 8 13 12 12 15 15 15 12 11 11 11 12 11 10 8 9 10 11 11 11 12 12 10 9 7 7 5 7 9 9 8 8 8
12 14 15 17 16 11 8 5 2 2 6 11 12 12 13 16 18 14 11 11 11 14 14 12 9 9 10 12 12 12 12 12 11 10 9 7 6 8 9 9 9 9 8
10 17 17 20 17 13 9 6 4 2 3 7 11 12 12 13 16 14 12 11 11 13 13 13 11 11 13 13 13 12 13 10 11 10 10 8 8 9 10 10 10 9 9
12 19 19 20 17 14 11 9 6 3 0 6 9 10 10 12 14 15 14 12 12 13 14 13 13 14 15 14 14 15 13 13 12 12 11 10 10 11 12 11 10 9 9
9 15 18 18 17 15 13 11 8 5 2 5 6 7 9 11 13 15 15 14 13 13 14 14 16 16 16 16 16 15 15 14 13 13 12 11 11 12 13 11 11 11 11
12 13 16 19 19 16 14 12 11 9 5 5 6 7 8 12 14 15 15 15 15 15 15 15 16 15 16 17 17 15 14 14 14 13 13 12 13 14 14 12 12 11 11
14 14 16 20 19 16 14 12 12 11 8 7 8 9 9 12 15 16 16 16 17 17 18 17 18 16 17 18 18 18 18 16 16 15 15 16 16 16 15 13 12 12 12
15 15 16 19 17 15 15 14 15 15 12 9 10 9 10 11 13 15 16 17 19 19 18 17 18 18 18 19 20 18 19 22 21 17 17 17 18 17 14 13 13 13 13
17 17 18 18 18 18 18 20 20 17 15 12 12 11 10 11 11 14 15 16 18 19 19 20 20 21 21 21 25 22 26 25 23 19 19 21 20 17 16 15 15 14 13
18 20 21 19 18 16 17 18 18 18 18 15 14 13 12 13 12 13 15 15 17 19 20 21 23 24 22 23 28 21 28 28 33 22 21 21 20 18 17 16 15 14 13
22 23 23 22 20 18 19 19 19 19 20 19 16 16 14 13 13 12 13 15 17 20 21 23 25 24 24 23 22 21 19 30 32 23 22 21 20 19 19 18 16 16 14
25 25 24 24 23 22 22 22 20 19 20 21 19 17 16 15 14 12 14 15 18 22 22 24 24 25 26 28 27 26 13 26 26 24 23 23 23 22 20 19 18 17 16
22 25 24 22 25 26 26 25 25 23 22 22 21 20 18 16 15 13 13 13 18 20 21 24 25 23 25 25 24 22 18 21 27 25 24 23 24 23 23 21 20 19 16
29 28 25 26 26 25 27 30 27 25 23 24 23 23 21 18 16 13 12 13 16 18 20 22 23 23 24 23 23 24 24 19 31 28 27 26 24 25 24 22 21 19 18
32 31 33 31 30 28 29 30 29 29 29 27 26 25 22 20 17 15 12 12 15 16 17 19 22 23 24 23 24 28 26 30 32 27 27 26 25 25 24 23 21 21 22
32 33 36 38 35 33 31 29 29 28 26 29 31 27 25 22 19 15 11 10 13 15 16 18 22 24 24 21 19 13 29 36 31 29 29 26 28 24 23 22 18 17 19
40 38 39 39 39 40 35 31 32 30 29 31 35 32 28 24 20 17 12 10 12 15 17 20 22 25 24 22 16 15 29 32 30 30 29 27 26 25 21 20 20 19 18
32 36 43 44 43 43 41 35 34 32 30 29 33 35 30 25 23 20 15 12 12 14 18 20 23 24 23 20 14 24 23 29 30 29 27 27 27 26 26 23 25 24 22
29 28 28 34 47 44 43 41 38 35 31 28 29 35 32 27 25 22 18 14 13 14 17 20 22 25 23 21 18 17 15 30 29 28 26 26 25 22 22 22 23 24 21
33 33 33 30 36 43 45 43 39 37 32 28 30 34 34 30 26 24 22 17 14 14 17 19 21 25 24 23 22 20 23 14 25 30 27 26 27 26 25 22 23 23 21
40 37 37 37 34 36 47 47 45 45 36 29 31 33 35 33 28 26 24 21 17 16 16 19 21 26 26 27 27 26 25 22 24 30 19 22 29 29 25 24 23 22 22
47 43 37 40 37 33 35 49 48 44 38 34 34 34 37 36 31 27 26 22 20 19 19 21 24 26 29 28 30 26 28 28 27 27 29 25 28 33 29 26 24 23 22
45 47 44 39 40 35 35 38 47 42 39 40 38 39 39 39 30 28 26 24 22 21 22 23 25 26 29 29 32 30 33 34 30 25 35 32 35 40 31 27 24 24 24
32 37 43 39 40 36 32 35 43 45 43 37 35 43 41 34 32 28 27 25 23 22 24 25 25 28 29 31 31 32 36 33 32 30 29 35 45 41 34 30 26 25 24
29 29 34 34 38 41 35 30 34 37 42 35 36 30 18 19 23 29 27 25 24 24 24 24 24 27 29 28 30 31 33 32 34 32 35 38 44 35 35 31 29 25 24
20 25 25 28 31 36 39 30 32 36 35 35 34 29 27 23 27 30 27 25 24 25 25 23 24 27 28 29 31 33 33 32 34 32 35 37 43 43 39 28 28 25 25
Wind_Direction
242 241 240 218 211 190 179 182 303 11 350 338 328 298 282 285 287 284 273 263 250 246 244 240 241 242 238 234 238 237 223 219 222 226 206 203 214 188 170 162 156 154 143
234 233 231 217 212 207 201 205 175 60 355 336 329 323 299 290 289 284 276 261 244 242 244 249 251 250 238 234 237 233 223 219 224 229 215 223 226 194 177 167 163 160 150
232 221 221 210 214 215 225 226 203 161 6 339 329 325 309 300 292 287 280 267 251 243 244 246 245 253 242 234 234 227 224 224 234 227 227 239 220 202 184 177 174 162 158
211 210 211 207 215 224 230 233 220 204 339 342 328 328 327 309 299 290 281 271 262 251 244 242 240 241 239 238 235 226 227 234 231 222 225 228 215 200 187 184 177 167 164
246 212 210 216 224 232 237 228 226 227 261 322 315 312 321 316 297 285 282 275 268 258 251 242 241 241 241 239 233 230 232 239 229 224 227 224 218 206 193 189 182 173 167
246 239 233 227 228 235 237 230 224 225 243 282 282 288 311 310 295 283 279 271 266 260 253 250 247 246 245 241 236 231 239 244 230 232 230 227 217 204 198 189 184 181 177
260 241 251 228 228 231 237 242 235 238 247 265 265 272 286 293 290 281 273 268 264 260 258 253 253 247 244 242 239 234 229 227 240 236 236 227 214 203 198 190 188 188 187
256 248 235 228 230 238 238 244 247 251 242 245 257 260 279 286 286 279 271 266 265 264 264 258 258 259 255 245 236 231 243 229 234 243 230 219 210 203 197 195 193 196 195
246 222 223 232 245 252 253 261 259 243 246 246 251 258 274 277 275 274 270 265 264 262 259 260 258 257 256 255 233 230 225 238 225 239 218 207 206 201 197 199 200 199 200
227 223 225 242 248 247 248 248 250 258 259 252 252 256 270 270 269 269 265 262 261 256 253 253 254 256 262 255 268 233 262 237 218 224 211 203 203 201 204 204 203 205 207
232 235 239 250 256 254 248 240 241 257 256 254 252 257 269 269 267 266 261 257 258 252 250 253 255 258 259 265 247 272 285 252 201 210 210 203 205 206 205 206 205 206 212
234 235 246 247 256 253 245 244 248 252 249 247 255 258 267 268 269 266 263 260 260 252 249 253 256 257 258 261 263 280 287 236 198 205 208 205 205 203 204 206 209 208 220
243 244 240 245 258 245 244 250 249 246 243 250 258 258 267 267 269 265 265 267 263 258 256 257 260 260 262 262 270 265 262 278 195 198 200 204 202 204 207 208 212 217 226
226 237 246 247 242 247 250 246 247 249 250 250 252 257 264 265 265 261 264 267 265 258 257 258 258 258 259 261 264 268 257 253 195 193 202 205 209 209 210 213 220 231 243
239 231 231 235 243 245 253 249 248 254 252 249 247 255 262 263 262 259 258 263 265 257 256 258 256 256 257 257 263 266 249 222 195 193 201 198 207 207 214 218 231 239 234
251 250 239 232 234 242 243 247 253 255 256 253 249 248 256 259 259 258 257 265 269 262 256 253 252 253 251 258 261 255 228 204 192 188 204 206 209 206 218 222 232 236 238
260 249 247 249 240 238 238 238 248 253 260 257 247 242 248 253 255 256 258 269 270 259 255 248 249 254 253 255 259 228 223 197 193 192 199 204 214 215 223 227 242 244 230
260 257 247 244 248 242 237 236 244 252 253 251 244 233 240 247 250 257 260 273 278 260 253 250 248 250 253 250 247 219 232 213 197 199 201 214 220 227 235 240 251 243 238
250 246 242 246 242 242 238 240 245 248 250 245 242 229 234 241 246 255 259 268 282 272 259 251 249 248 251 243 240 215 250 202 207 206 211 218 221 218 234 239 242 244 236
249 249 251 254 247 241 238 237 239 245 248 241 241 229 232 237 242 251 258 265 279 285 267 257 252 248 248 244 239 229 236 235 217 216 217 226 230 233 238 243 243 241 234
257 251 252 254 255 238 233 231 238 244 241 238 241 234 232 234 239 247 255 262 276 283 270 258 251 248 236 241 233 230 232 227 229 222 247 236 234 231 238 240 242 241 238
256 250 251 250 253 244 241 230 233 238 239 237 240 244 237 233 236 242 252 260 268 278 273 263 253 246 236 237 233 238 230 230 230 240 244 233 243 235 235 241 239 235 232
257 254 251 251 247 246 245 243 232 232 238 241 243 245 236 230 229 239 249 258 266 278 277 268 251 241 242 236 238 237 232 234 236 251 240 232 241 232 233 238 234 233 233
261 258 247 252 242 238 243 235 233 230 232 241 250 242 244 216 220 234 246 256 267 276 277 268 244 237 236 240 238 239 236 245 247 256 249 264 219 225 230 230 230 230 230
263 261 248 244 239 239 242 238 237 234 237 236 242 251 219 214 225 233 243 257 268 278 279 265 239 234 235 235 238 239 237 247 253 252 256 225 218 226 233 220 228 225 227
270 252 242 239 240 235 235 236 233 230 230 233 233 230 249 232 239 232 242 255 270 279 278 260 236 234 233 239 235 239 241 246 254 256 254 235 237 246 237 221 229 225 223